[[{"header":{"parameterUnit":"m.s-1","parameterCategory":1,"la1":30.2991,"la2":30.254,"lo1":-89.0895,"lo2":-89.0444,"dy":0.0017,"dx":0.0017,"nx":28,"ny":28,"refTime":"2023-10-29T03:00:00:Z","depth":0,"parameterNumber":2,"parameterNumberName":"U-component_of_WINDS"},"data":[0,0,0,0,0,0,0,0,0,0,0,0,0,0,0,0,0,0,0,0,0,0,0,0,0,0,0,0,0,0,0,0,0,0,0,0,0,0,0,0,0,0,0,0,0,0,0,0,0,0,0,0,0,0,0,0,0,0,-0.7025,-0.7025,0,-0.6995,-0.6995,-0.6994,-0.6909,-0.6907,-0.6905,-0.6903,-0.6875,-0.6876,-0.6877,0,0,0,0,0,0,0,0,0,0,0,0,0,-0.7012,-0.7013,-0.7025,-0.7025,-0.7025,-0.6995,-0.6995,-0.6994,-0.6909,-0.6907,-0.6904,-0.6902,-0.6875,-0.6876,-0.6877,0,0,0,0,0,0,0,0,0,0,0,0,0,-0.7004,-0.7013,-0.7025,-0.6978,-0.6974,-0.6995,-0.6995,-0.6994,-0.6909,-0.6907,-0.6904,-0.6901,-0.6874,-0.6876,-0.6877,-0.6942,0,0,-0.6882,-0.6882,0,0,0,0,0,0,0,0,-0.7004,-0.7004,-0.6986,-0.6982,-0.6977,-0.6953,-0.6979,-0.6977,-0.691,-0.6934,-0.6903,-0.69,-0.6903,-0.6902,-0.6903,-0.6941,-0.694,-0.6882,-0.6883,-0.6883,-0.6884,0,0,0,0,0,0,0,-0.7005,-0.7005,-0.7013,-0.6986,-0.698,-0.696,-0.6955,-0.6978,-0.6935,-0.6932,-0.6925,-0.6923,-0.69,-0.6901,-0.6901,-0.6939,-0.6882,-0.6883,-0.6884,-0.6884,-0.7029,-0.7032,0,0,0,0,0,0,-0.7012,-0.7006,-0.7014,-0.7012,-0.6984,-0.6962,-0.6957,-0.6963,-0.6934,-0.6927,-0.6925,-0.6919,-0.69,-0.69,-0.69,-0.6974,-0.6883,-0.6885,-0.6885,-0.7026,-0.703,-0.7033,0,0,0,0,0,0,-0.7012,-0.7013,-0.7015,-0.7007,-0.7006,-0.6965,-0.6973,-0.6964,-0.6965,-0.6929,-0.6921,-0.6934,-0.6898,-0.6898,-0.6932,-0.6972,-0.6885,-0.6887,-0.7023,-0.7027,-0.7031,-0.7124,0,0,0,0,0,0,-0.7012,-0.7014,-0.7038,-0.7009,-0.7007,-0.7048,-0.6975,-0.6966,-0.6968,-0.6959,-0.6936,-0.6929,-0.6896,-0.693,-0.6934,-0.6973,-0.6888,-0.7019,-0.7025,-0.703,-0.7117,-0.7131,-0.7143,0,0,0,0,0,-0.7012,-0.7066,-0.7039,-0.7041,-0.7036,-0.705,-0.7049,-0.7009,-0.6971,-0.6995,-0.6972,-0.693,-0.6967,-0.6935,-0.6937,-0.6978,-0.7016,-0.7023,-0.703,-0.7111,-0.7128,-0.7142,0,0,0,0,0,0,-0.7101,-0.7061,-0.7031,-0.7077,-0.7068,-0.7036,-0.7065,-0.7028,-0.703,-0.7022,-0.6972,-0.6968,-0.7009,-0.6997,-0.6961,-0.7039,-0.6985,-0.6992,-0.7046,-0.7062,-0.7074,-0.7077,-0.6889,0,0,0,0,0,-0.7126,-0.7141,-0.7105,-0.7149,-0.7145,-0.7106,-0.7111,-0.708,-0.7069,-0.7065,-0.7044,-0.7035,-0.7045,-0.7052,-0.7059,-0.7114,-0.7108,-0.7143,-0.7156,-0.7167,-0.7174,-0.7203,-0.7218,-0.7055,-0.7055,-0.7055,0,0,-0.7179,-0.7158,-0.717,-0.7166,-0.7155,-0.7172,-0.7103,-0.7124,-0.7136,-0.7068,-0.7099,-0.7084,-0.7071,-0.7116,-0.7134,-0.7106,-0.7218,-0.7175,-0.7184,-0.7186,-0.7211,-0.7227,-0.7241,-0.7059,-0.7058,-0.7058,0,0,-0.7282,-0.7268,-0.7303,-0.7293,-0.7277,-0.725,-0.7259,-0.7232,-0.7219,-0.7249,-0.7198,-0.7212,-0.723,-0.7223,-0.7221,-0.7322,-0.7283,-0.7325,-0.7393,-0.7421,-0.7434,-0.7445,-0.7482,-0.7495,-0.7333,-0.7333,-0.7333,0,-0.7349,-0.7371,-0.7326,-0.7349,-0.7349,-0.7287,-0.7323,-0.7316,-0.7304,-0.7305,-0.7274,-0.7294,-0.7281,-0.7324,-0.7348,-0.7349,-0.7358,-0.7328,-0.7436,-0.7447,-0.7456,-0.7491,-0.7504,-0.7338,-0.7338,-0.7337,-0.7336,0,-0.7455,-0.7471,-0.7501,-0.749,-0.7493,-0.7523,-0.7482,-0.7491,-0.7461,-0.7438,-0.7469,-0.7451,-0.7453,-0.7461,-0.7432,-0.75,-0.7483,-0.7444,-0.7389,-0.7478,-0.7509,-0.7522,-0.7346,-0.7344,-0.7342,-0.7341,0,0,-0.7615,-0.7577,-0.7589,-0.7583,-0.756,-0.7572,-0.7599,-0.76,-0.7609,-0.7603,-0.7625,-0.7641,-0.7605,-0.7604,-0.7573,-0.7598,-0.7679,-0.7556,-0.7555,-0.758,-0.7754,-0.7784,-0.7799,-0.7653,-0.7655,-0.7657,-0.7755,0,-0.7712,-0.7756,-0.7715,-0.7767,-0.7782,-0.7723,-0.7747,-0.7736,-0.7715,-0.7725,-0.7703,-0.7715,-0.7666,-0.7665,-0.7687,-0.7665,-0.7714,-0.7657,-0.7674,-0.7675,-0.768,-0.7816,-0.7847,-0.794,-0.7767,-0.7769,-0.777,0,-0.7833,-0.7831,-0.7884,-0.7857,-0.7862,-0.7884,-0.7882,-0.7892,-0.7879,-0.7862,-0.786,-0.7823,-0.7848,-0.7794,-0.7828,-0.7791,-0.7796,-0.7786,-0.7788,-0.7789,-0.7729,-0.7821,-0.7969,-0.7983,-0.7789,-0.7788,-0.7786,0,-0.7945,-0.7955,-0.7988,-0.7984,-0.7955,-0.7972,-0.796,-0.7944,-0.7948,-0.7946,-0.7948,-0.795,-0.7951,-0.7954,-0.7918,-0.7881,-0.7958,-0.79,-0.7945,-0.7947,-0.7965,-0.7964,-0.8117,-0.7967,-0.7967,-0.7966,-0.7966,0,-0.8058,-0.8093,-0.8038,-0.8058,-0.8095,-0.8049,-0.8088,-0.807,-0.8057,-0.8073,-0.8023,-0.804,-0.7991,-0.8003,-0.7975,-0.8009,-0.8009,-0.7997,-0.799,-0.8002,-0.8004,-0.8005,-0.7998,-0.797,-0.7969,-0.7969,-0.7968,0,-0.819,-0.8154,-0.8186,-0.8155,-0.8148,-0.8177,-0.8151,-0.8169,-0.8145,-0.8167,-0.8169,-0.8131,-0.8143,-0.8107,-0.8113,-0.8094,-0.8144,-0.8125,-0.8148,-0.8143,-0.8191,-0.8187,-0.835,-0.8369,-0.8207,-0.8208,-0.8209,0,-0.8265,-0.829,-0.8262,-0.8269,-0.826,-0.8272,-0.8275,-0.823,-0.8236,-0.8223,-0.8243,-0.825,-0.8253,-0.8275,-0.8248,-0.8253,-0.8235,-0.8291,-0.8235,-0.8247,-0.8236,-0.8236,-0.8238,-0.8303,-0.8305,-0.8307,-0.8308,0,-0.8403,-0.8384,-0.8389,-0.8389,-0.8394,-0.8391,-0.8386,-0.8395,-0.8347,-0.8355,-0.8366,-0.8369,-0.8375,-0.8383,-0.8382,-0.8371,-0.8332,-0.8326,-0.8337,-0.835,-0.8363,-0.8358,-0.8181,-0.8323,-0.8321,-0.832,-0.8319,-0.8319,-0.8509,-0.8529,-0.8512,-0.852,-0.851,-0.8506,-0.8522,-0.8499,-0.8507,-0.8508,-0.8481,-0.8498,-0.8484,-0.8478,-0.8471,-0.8484,-0.8458,-0.8474,-0.8478,-0.8483,-0.8491,-0.836,-0.8484,-0.8483,-0.8483,-0.8483,-0.8482,0,-0.8644,-0.863,-0.8638,-0.8631,-0.8638,-0.86,-0.8592,-0.86,-0.8615,-0.8605,-0.8609,-0.8622,-0.863,-0.8604,-0.8608,-0.8623,-0.8606,-0.8626,-0.8625,-0.8623,-0.8514,-0.8504,-0.864,-0.864,-0.864,-0.864,-0.864,-0.864,-0.8716,-0.8747,-0.8726,-0.8753,-0.8739,-0.8754,-0.8752,-0.8749,-0.8741,-0.8757,-0.8763,-0.8745,-0.873,-0.8732,-0.8738,-0.873,-0.8735,-0.8761,-0.8748,-0.8646,-0.8631,-0.8616,-0.8607,-0.8762,-0.8763,-0.8856,-0.8857,-0.8858]},{"header":{"parameterUnit":"m.s-1","parameterCategory":1,"la1":30.2991,"la2":30.254,"lo1":-89.0895,"lo2":-89.0444,"dy":0.0017,"dx":0.0017,"nx":28,"ny":28,"refTime":"2023-10-29T03:00:00:Z","depth":0,"parameterNumber":3,"parameterNumberName":"V-component_of_WINDS"},"data":[0,0,0,0,0,0,0,0,0,0,0,0,0,0,0,0,0,0,0,0,0,0,0,0,0,0,0,0,0,0,0,0,0,0,0,0,0,0,0,0,0,0,0,0,0,0,0,0,0,0,0,0,0,0,0,0,0,0,-0.8411,-0.8411,0,-0.8408,-0.8408,-0.8408,-0.8435,-0.8436,-0.8437,-0.8437,-0.8432,-0.8431,-0.843,0,0,0,0,0,0,0,0,0,0,0,0,0,-0.844,-0.8439,-0.8411,-0.8411,-0.8411,-0.8408,-0.8408,-0.8408,-0.8435,-0.8436,-0.8437,-0.8438,-0.8432,-0.8431,-0.843,0,0,0,0,0,0,0,0,0,0,0,0,0,-0.8431,-0.8439,-0.8411,-0.8424,-0.8425,-0.8408,-0.8408,-0.8408,-0.8435,-0.8436,-0.8437,-0.8438,-0.8433,-0.8431,-0.843,-0.84,0,0,-0.8426,-0.8426,0,0,0,0,0,0,0,0,-0.8431,-0.843,-0.8422,-0.8423,-0.8424,-0.8423,-0.8416,-0.8405,-0.8434,-0.8431,-0.8437,-0.8439,-0.8428,-0.8427,-0.8424,-0.8399,-0.8399,-0.8426,-0.8425,-0.8425,-0.8424,0,0,0,0,0,0,0,-0.8432,-0.843,-0.841,-0.8422,-0.8423,-0.843,-0.843,-0.8414,-0.8423,-0.8431,-0.8433,-0.8433,-0.8429,-0.8425,-0.8424,-0.8399,-0.8426,-0.8425,-0.8424,-0.8424,-0.8353,-0.8352,0,0,0,0,0,0,-0.8431,-0.8431,-0.841,-0.841,-0.8431,-0.8429,-0.8429,-0.8422,-0.8423,-0.8425,-0.8432,-0.8434,-0.8427,-0.8426,-0.8424,-0.8391,-0.8425,-0.8424,-0.8423,-0.8354,-0.8352,-0.8351,0,0,0,0,0,0,-0.8432,-0.8429,-0.841,-0.8421,-0.8419,-0.8427,-0.842,-0.8422,-0.8418,-0.8424,-0.8425,-0.8427,-0.8428,-0.8426,-0.8406,-0.8391,-0.8423,-0.8422,-0.8355,-0.8353,-0.8352,-0.8323,0,0,0,0,0,0,-0.8432,-0.8429,-0.8417,-0.842,-0.8418,-0.8392,-0.8419,-0.8421,-0.8416,-0.8419,-0.8419,-0.842,-0.8428,-0.8408,-0.8405,-0.839,-0.8421,-0.8356,-0.8354,-0.8352,-0.8326,-0.8321,-0.8317,0,0,0,0,0,-0.8433,-0.8408,-0.8417,-0.8414,-0.8404,-0.8391,-0.839,-0.8401,-0.8415,-0.8404,-0.8408,-0.842,-0.8393,-0.8406,-0.8403,-0.8387,-0.8358,-0.8355,-0.8352,-0.8328,-0.8322,-0.8317,0,0,0,0,0,0,-0.8402,-0.8409,-0.8418,-0.8393,-0.8392,-0.8396,-0.8382,-0.8394,-0.8387,-0.839,-0.8403,-0.8403,-0.8382,-0.8382,-0.8396,-0.8359,-0.8378,-0.8374,-0.836,-0.8354,-0.835,-0.8351,-0.842,0,0,0,0,0,-0.8392,-0.8382,-0.8388,-0.8366,-0.8365,-0.8374,-0.8368,-0.8377,-0.8375,-0.8375,-0.8377,-0.8375,-0.8366,-0.836,-0.8352,-0.8325,-0.8327,-0.8313,-0.8309,-0.8305,-0.8302,-0.8291,-0.8286,-0.8343,-0.8343,-0.8343,0,0,-0.8372,-0.8374,-0.8367,-0.836,-0.836,-0.8349,-0.8373,-0.836,-0.8353,-0.8372,-0.8356,-0.8357,-0.8355,-0.8333,-0.8323,-0.8333,-0.8287,-0.8302,-0.8299,-0.8298,-0.8288,-0.8283,-0.8278,-0.8341,-0.8341,-0.8342,0,0,-0.833,-0.833,-0.8313,-0.8313,-0.8313,-0.832,-0.8316,-0.8319,-0.8321,-0.8304,-0.832,-0.8311,-0.8295,-0.8294,-0.8291,-0.8252,-0.8265,-0.8249,-0.8226,-0.8215,-0.8211,-0.8207,-0.8196,-0.8191,-0.8246,-0.8246,-0.8246,0,-0.8305,-0.8291,-0.8303,-0.829,-0.8288,-0.8306,-0.829,-0.8289,-0.8286,-0.8284,-0.8294,-0.8277,-0.8276,-0.8256,-0.8247,-0.8243,-0.824,-0.825,-0.8211,-0.8207,-0.8203,-0.8193,-0.8188,-0.8244,-0.8245,-0.8245,-0.8245,0,-0.8261,-0.8251,-0.8237,-0.8236,-0.8231,-0.8216,-0.8227,-0.8221,-0.823,-0.8235,-0.8219,-0.822,-0.8214,-0.8209,-0.8217,-0.819,-0.8197,-0.8208,-0.8228,-0.8196,-0.8186,-0.8182,-0.8242,-0.8243,-0.8243,-0.8243,0,0,-0.8199,-0.8207,-0.8202,-0.8203,-0.8205,-0.8198,-0.8184,-0.818,-0.8176,-0.8173,-0.8163,-0.815,-0.8162,-0.8159,-0.8167,-0.8157,-0.813,-0.8171,-0.8171,-0.8165,-0.8103,-0.8096,-0.8091,-0.8137,-0.8137,-0.8136,-0.8104,0,-0.8161,-0.814,-0.8152,-0.8129,-0.8122,-0.814,-0.8129,-0.8129,-0.8134,-0.8128,-0.8133,-0.8125,-0.814,-0.8139,-0.813,-0.8135,-0.8118,-0.8137,-0.813,-0.8129,-0.8132,-0.8085,-0.8077,-0.8047,-0.81,-0.81,-0.8099,0,-0.8114,-0.8112,-0.8089,-0.8096,-0.8093,-0.8083,-0.8081,-0.8074,-0.8076,-0.808,-0.8078,-0.8089,-0.8078,-0.8096,-0.808,-0.8093,-0.8091,-0.8093,-0.8092,-0.8093,-0.8114,-0.8088,-0.8038,-0.8034,-0.8093,-0.8093,-0.8094,0,-0.8075,-0.8066,-0.8052,-0.8052,-0.8059,-0.8052,-0.8054,-0.8057,-0.8054,-0.8052,-0.8051,-0.8046,-0.8045,-0.8041,-0.8052,-0.8063,-0.8036,-0.8054,-0.804,-0.804,-0.8035,-0.8035,-0.7986,-0.8029,-0.803,-0.803,-0.803,0,-0.8033,-0.8019,-0.8036,-0.8027,-0.8013,-0.8026,-0.8011,-0.8015,-0.8018,-0.8011,-0.8025,-0.8019,-0.8031,-0.8026,-0.8033,-0.8021,-0.8019,-0.8023,-0.8026,-0.8023,-0.8023,-0.8023,-0.8026,-0.8028,-0.8029,-0.8029,-0.8029,0,-0.7987,-0.7998,-0.7985,-0.7993,-0.7994,-0.7984,-0.7991,-0.7983,-0.799,-0.7981,-0.798,-0.799,-0.7984,-0.7994,-0.7989,-0.7994,-0.7978,-0.7982,-0.7978,-0.798,-0.7967,-0.7969,-0.7917,-0.7912,-0.7957,-0.7956,-0.7956,0,-0.7961,-0.7951,-0.7959,-0.7956,-0.7958,-0.7953,-0.7951,-0.7964,-0.7961,-0.7964,-0.7957,-0.7953,-0.7951,-0.7941,-0.7948,-0.7945,-0.7951,-0.7933,-0.795,-0.7949,-0.7953,-0.7955,-0.7955,-0.793,-0.7929,-0.7929,-0.7928,0,-0.7914,-0.792,-0.7917,-0.7917,-0.7915,-0.7914,-0.7915,-0.7912,-0.7926,-0.7922,-0.7918,-0.7916,-0.7913,-0.7909,-0.7908,-0.791,-0.7922,-0.7923,-0.792,-0.7918,-0.7917,-0.792,-0.7971,-0.7924,-0.7925,-0.7925,-0.7925,-0.7925,-0.7879,-0.7872,-0.7877,-0.7874,-0.7877,-0.7878,-0.7873,-0.7879,-0.7876,-0.7875,-0.7883,-0.7877,-0.788,-0.7881,-0.7882,-0.7878,-0.7886,-0.7881,-0.788,-0.7879,-0.7878,-0.7916,-0.7877,-0.7877,-0.7877,-0.7878,-0.7878,0,-0.7834,-0.7839,-0.7836,-0.7839,-0.7837,-0.7848,-0.7851,-0.7848,-0.7844,-0.7846,-0.7844,-0.784,-0.7838,-0.7845,-0.7843,-0.7839,-0.7844,-0.7838,-0.7839,-0.784,-0.787,-0.7874,-0.7834,-0.7834,-0.7834,-0.7834,-0.7834,-0.7834,-0.7811,-0.7802,-0.7809,-0.7801,-0.7805,-0.7801,-0.7802,-0.7803,-0.7806,-0.7801,-0.78,-0.7805,-0.7809,-0.7809,-0.7807,-0.7809,-0.7809,-0.7801,-0.7805,-0.7833,-0.7838,-0.7842,-0.7846,-0.78,-0.78,-0.7776,-0.7776,-0.7776]}]]